<?xml version="1.0" encoding="UTF-8" standalone="no" ?>
<gpx xmlns="http://www.topografix.com/GPX/1/1" xmlns:xsi="http://www.w3.org/2001/XMLSchema-instance" xsi:schemaLocation="http://www.topografix.com/GPX/1/1 http://www.topografix.com/GPX/1/1/gpx.xsd" version="1.1" creator="VisuGPX - https://www.visugpx.com">
  <metadata>
    <name>Autour de Lachau</name>
    <desc><![CDATA[grp_trc:]]></desc>
  </metadata>
  <trk>
    <name><![CDATA[Autour de Lachau]]></name>
    <cmt><![CDATA[8:30:33 AM]]></cmt>
    <desc><![CDATA[comment ...]]></desc>
    <trkseg>
      <trkpt lat="44.23163" lon="5.63791">
        <ele>720</ele>
        <time>2022-01-22T07:30:33Z</time>
      </trkpt>
      <trkpt lat="44.23163" lon="5.63791">
        <ele>720</ele>
        <time>2022-01-22T07:30:33Z</time>
      </trkpt>
      <trkpt lat="44.23151" lon="5.63771">
        <ele>720</ele>
        <time>2022-01-22T07:30:33Z</time>
      </trkpt>
      <trkpt lat="44.23129" lon="5.63765">
        <ele>720</ele>
        <time>2022-01-22T07:30:33Z</time>
      </trkpt>
      <trkpt lat="44.2312" lon="5.63754">
        <ele>720</ele>
        <time>2022-01-22T07:30:33Z</time>
      </trkpt>
      <trkpt lat="44.2312" lon="5.63754">
        <ele>720</ele>
        <time>2022-01-22T07:30:33Z</time>
      </trkpt>
      <trkpt lat="44.23115" lon="5.63734">
        <ele>720</ele>
        <time>2022-01-22T07:30:33Z</time>
      </trkpt>
      <trkpt lat="44.231" lon="5.63744">
        <ele>720</ele>
        <time>2022-01-22T07:30:33Z</time>
      </trkpt>
      <trkpt lat="44.2307" lon="5.63747">
        <ele>720</ele>
        <time>2022-01-22T07:30:33Z</time>
      </trkpt>
      <trkpt lat="44.22994" lon="5.63801">
        <ele>721</ele>
        <time>2022-01-22T07:30:33Z</time>
      </trkpt>
      <trkpt lat="44.22947" lon="5.63708">
        <ele>721</ele>
        <time>2022-01-22T07:30:33Z</time>
      </trkpt>
      <trkpt lat="44.22947" lon="5.63708">
        <ele>722</ele>
        <time>2022-01-22T07:30:33Z</time>
      </trkpt>
      <trkpt lat="44.2291" lon="5.63659">
        <ele>722</ele>
        <time>2022-01-22T07:30:33Z</time>
      </trkpt>
      <trkpt lat="44.22794" lon="5.63541">
        <ele>721</ele>
        <time>2022-01-22T07:30:33Z</time>
      </trkpt>
      <trkpt lat="44.22794" lon="5.63541">
        <ele>721</ele>
        <time>2022-01-22T07:30:33Z</time>
      </trkpt>
      <trkpt lat="44.22745" lon="5.63484">
        <ele>720</ele>
        <time>2022-01-22T07:30:33Z</time>
      </trkpt>
      <trkpt lat="44.22694" lon="5.63442">
        <ele>719</ele>
        <time>2022-01-22T07:30:33Z</time>
      </trkpt>
      <trkpt lat="44.22642" lon="5.63357">
        <ele>719</ele>
        <time>2022-01-22T07:30:33Z</time>
      </trkpt>
      <trkpt lat="44.22642" lon="5.63357">
        <ele>719</ele>
        <time>2022-01-22T07:30:33Z</time>
      </trkpt>
      <trkpt lat="44.22543" lon="5.63039">
        <ele>720</ele>
        <time>2022-01-22T07:30:33Z</time>
      </trkpt>
      <trkpt lat="44.22519" lon="5.63007">
        <ele>721</ele>
        <time>2022-01-22T07:30:33Z</time>
      </trkpt>
      <trkpt lat="44.22482" lon="5.62978">
        <ele>721</ele>
        <time>2022-01-22T07:30:33Z</time>
      </trkpt>
      <trkpt lat="44.2245" lon="5.6296">
        <ele>721</ele>
        <time>2022-01-22T07:30:33Z</time>
      </trkpt>
      <trkpt lat="44.22432" lon="5.62939">
        <ele>721</ele>
        <time>2022-01-22T07:30:33Z</time>
      </trkpt>
      <trkpt lat="44.22407" lon="5.62894">
        <ele>721</ele>
        <time>2022-01-22T07:30:33Z</time>
      </trkpt>
      <trkpt lat="44.22403" lon="5.62883">
        <ele>721</ele>
        <time>2022-01-22T07:30:33Z</time>
      </trkpt>
      <trkpt lat="44.22402" lon="5.62869">
        <ele>721</ele>
        <time>2022-01-22T07:30:33Z</time>
      </trkpt>
      <trkpt lat="44.22408" lon="5.62813">
        <ele>721</ele>
        <time>2022-01-22T07:30:33Z</time>
      </trkpt>
      <trkpt lat="44.22395" lon="5.6271">
        <ele>721</ele>
        <time>2022-01-22T07:30:33Z</time>
      </trkpt>
      <trkpt lat="44.22379" lon="5.6265">
        <ele>722</ele>
        <time>2022-01-22T07:30:33Z</time>
      </trkpt>
      <trkpt lat="44.2235" lon="5.62584">
        <ele>722</ele>
        <time>2022-01-22T07:30:33Z</time>
      </trkpt>
      <trkpt lat="44.2235" lon="5.62584">
        <ele>723</ele>
        <time>2022-01-22T07:30:33Z</time>
      </trkpt>
      <trkpt lat="44.22332" lon="5.62529">
        <ele>724</ele>
        <time>2022-01-22T07:30:33Z</time>
      </trkpt>
      <trkpt lat="44.22321" lon="5.62503">
        <ele>724</ele>
        <time>2022-01-22T07:30:33Z</time>
      </trkpt>
      <trkpt lat="44.22323" lon="5.62466">
        <ele>724</ele>
        <time>2022-01-22T07:30:33Z</time>
      </trkpt>
      <trkpt lat="44.22319" lon="5.62442">
        <ele>724</ele>
        <time>2022-01-22T07:30:33Z</time>
      </trkpt>
      <trkpt lat="44.22311" lon="5.62419">
        <ele>724</ele>
        <time>2022-01-22T07:30:33Z</time>
      </trkpt>
      <trkpt lat="44.22267" lon="5.6236">
        <ele>725</ele>
        <time>2022-01-22T07:30:33Z</time>
      </trkpt>
      <trkpt lat="44.22214" lon="5.62268">
        <ele>728</ele>
        <time>2022-01-22T07:30:33Z</time>
      </trkpt>
      <trkpt lat="44.22142" lon="5.62193">
        <ele>731</ele>
        <time>2022-01-22T07:30:33Z</time>
      </trkpt>
      <trkpt lat="44.22121" lon="5.62073">
        <ele>733</ele>
        <time>2022-01-22T07:30:33Z</time>
      </trkpt>
      <trkpt lat="44.22095" lon="5.62007">
        <ele>735</ele>
        <time>2022-01-22T07:30:33Z</time>
      </trkpt>
      <trkpt lat="44.22063" lon="5.61957">
        <ele>735</ele>
        <time>2022-01-22T07:30:33Z</time>
      </trkpt>
      <trkpt lat="44.22054" lon="5.61905">
        <ele>736</ele>
        <time>2022-01-22T07:30:33Z</time>
      </trkpt>
      <trkpt lat="44.22045" lon="5.61896">
        <ele>737</ele>
        <time>2022-01-22T07:30:33Z</time>
      </trkpt>
      <trkpt lat="44.22022" lon="5.61886">
        <ele>738</ele>
        <time>2022-01-22T07:30:33Z</time>
      </trkpt>
      <trkpt lat="44.21987" lon="5.61863">
        <ele>738</ele>
        <time>2022-01-22T07:30:33Z</time>
      </trkpt>
      <trkpt lat="44.21983" lon="5.61854">
        <ele>739</ele>
        <time>2022-01-22T07:30:33Z</time>
      </trkpt>
      <trkpt lat="44.21991" lon="5.61798">
        <ele>738</ele>
        <time>2022-01-22T07:30:33Z</time>
      </trkpt>
      <trkpt lat="44.21987" lon="5.61773">
        <ele>739</ele>
        <time>2022-01-22T07:30:33Z</time>
      </trkpt>
      <trkpt lat="44.21976" lon="5.61742">
        <ele>738</ele>
        <time>2022-01-22T07:30:33Z</time>
      </trkpt>
      <trkpt lat="44.2197" lon="5.61734">
        <ele>738</ele>
        <time>2022-01-22T07:30:33Z</time>
      </trkpt>
      <trkpt lat="44.21944" lon="5.61709">
        <ele>739</ele>
        <time>2022-01-22T07:30:33Z</time>
      </trkpt>
      <trkpt lat="44.21941" lon="5.617">
        <ele>739</ele>
        <time>2022-01-22T07:30:33Z</time>
      </trkpt>
      <trkpt lat="44.2193" lon="5.61654">
        <ele>738</ele>
        <time>2022-01-22T07:30:33Z</time>
      </trkpt>
      <trkpt lat="44.21915" lon="5.61636">
        <ele>738</ele>
        <time>2022-01-22T07:30:33Z</time>
      </trkpt>
      <trkpt lat="44.21909" lon="5.61625">
        <ele>739</ele>
        <time>2022-01-22T07:30:33Z</time>
      </trkpt>
      <trkpt lat="44.21905" lon="5.61611">
        <ele>739</ele>
        <time>2022-01-22T07:30:33Z</time>
      </trkpt>
      <trkpt lat="44.21893" lon="5.61585">
        <ele>740</ele>
        <time>2022-01-22T07:30:33Z</time>
      </trkpt>
      <trkpt lat="44.21884" lon="5.61547">
        <ele>740</ele>
        <time>2022-01-22T07:30:33Z</time>
      </trkpt>
      <trkpt lat="44.21868" lon="5.61513">
        <ele>741</ele>
        <time>2022-01-22T07:30:33Z</time>
      </trkpt>
      <trkpt lat="44.2188" lon="5.61461">
        <ele>741</ele>
        <time>2022-01-22T07:30:33Z</time>
      </trkpt>
      <trkpt lat="44.21892" lon="5.61424">
        <ele>741</ele>
        <time>2022-01-22T07:30:33Z</time>
      </trkpt>
      <trkpt lat="44.21898" lon="5.61415">
        <ele>740</ele>
        <time>2022-01-22T07:30:33Z</time>
      </trkpt>
      <trkpt lat="44.21901" lon="5.61405">
        <ele>740</ele>
        <time>2022-01-22T07:30:33Z</time>
      </trkpt>
      <trkpt lat="44.21894" lon="5.61395">
        <ele>739</ele>
        <time>2022-01-22T07:30:33Z</time>
      </trkpt>
      <trkpt lat="44.21864" lon="5.61389">
        <ele>739</ele>
        <time>2022-01-22T07:30:33Z</time>
      </trkpt>
      <trkpt lat="44.21856" lon="5.61385">
        <ele>738</ele>
        <time>2022-01-22T07:30:33Z</time>
      </trkpt>
      <trkpt lat="44.21834" lon="5.61389">
        <ele>738</ele>
        <time>2022-01-22T07:30:33Z</time>
      </trkpt>
      <trkpt lat="44.21825" lon="5.61387">
        <ele>738</ele>
        <time>2022-01-22T07:30:33Z</time>
      </trkpt>
      <trkpt lat="44.2178" lon="5.61354">
        <ele>737</ele>
        <time>2022-01-22T07:30:33Z</time>
      </trkpt>
      <trkpt lat="44.21754" lon="5.61345">
        <ele>737</ele>
        <time>2022-01-22T07:30:33Z</time>
      </trkpt>
      <trkpt lat="44.21737" lon="5.61349">
        <ele>737</ele>
        <time>2022-01-22T07:30:33Z</time>
      </trkpt>
      <trkpt lat="44.21729" lon="5.61353">
        <ele>737</ele>
        <time>2022-01-22T07:30:33Z</time>
      </trkpt>
      <trkpt lat="44.21723" lon="5.61359">
        <ele>738</ele>
        <time>2022-01-22T07:30:33Z</time>
      </trkpt>
      <trkpt lat="44.21689" lon="5.61415">
        <ele>739</ele>
        <time>2022-01-22T07:30:33Z</time>
      </trkpt>
      <trkpt lat="44.21689" lon="5.61415">
        <ele>744</ele>
        <time>2022-01-22T07:30:33Z</time>
      </trkpt>
      <trkpt lat="44.21679" lon="5.61435">
        <ele>744</ele>
        <time>2022-01-22T07:30:33Z</time>
      </trkpt>
      <trkpt lat="44.21668" lon="5.61479">
        <ele>744</ele>
        <time>2022-01-22T07:30:33Z</time>
      </trkpt>
      <trkpt lat="44.21667" lon="5.61511">
        <ele>745</ele>
        <time>2022-01-22T07:30:33Z</time>
      </trkpt>
      <trkpt lat="44.21671" lon="5.61536">
        <ele>746</ele>
        <time>2022-01-22T07:30:33Z</time>
      </trkpt>
      <trkpt lat="44.21689" lon="5.61573">
        <ele>747</ele>
        <time>2022-01-22T07:30:33Z</time>
      </trkpt>
      <trkpt lat="44.21701" lon="5.6159">
        <ele>749</ele>
        <time>2022-01-22T07:30:33Z</time>
      </trkpt>
      <trkpt lat="44.21704" lon="5.61599">
        <ele>750</ele>
        <time>2022-01-22T07:30:33Z</time>
      </trkpt>
      <trkpt lat="44.21706" lon="5.61612">
        <ele>750</ele>
        <time>2022-01-22T07:30:33Z</time>
      </trkpt>
      <trkpt lat="44.21723" lon="5.61604">
        <ele>752</ele>
        <time>2022-01-22T07:30:33Z</time>
      </trkpt>
      <trkpt lat="44.21729" lon="5.61607">
        <ele>753</ele>
        <time>2022-01-22T07:30:33Z</time>
      </trkpt>
      <trkpt lat="44.21735" lon="5.61632">
        <ele>754</ele>
        <time>2022-01-22T07:30:33Z</time>
      </trkpt>
      <trkpt lat="44.21733" lon="5.61702">
        <ele>755</ele>
        <time>2022-01-22T07:30:33Z</time>
      </trkpt>
      <trkpt lat="44.2173" lon="5.61717">
        <ele>757</ele>
        <time>2022-01-22T07:30:33Z</time>
      </trkpt>
      <trkpt lat="44.2173" lon="5.61731">
        <ele>757</ele>
        <time>2022-01-22T07:30:33Z</time>
      </trkpt>
      <trkpt lat="44.21735" lon="5.61754">
        <ele>758</ele>
        <time>2022-01-22T07:30:33Z</time>
      </trkpt>
      <trkpt lat="44.21724" lon="5.61845">
        <ele>762</ele>
        <time>2022-01-22T07:30:33Z</time>
      </trkpt>
      <trkpt lat="44.21726" lon="5.61866">
        <ele>764</ele>
        <time>2022-01-22T07:30:33Z</time>
      </trkpt>
      <trkpt lat="44.2173" lon="5.61875">
        <ele>766</ele>
        <time>2022-01-22T07:30:33Z</time>
      </trkpt>
      <trkpt lat="44.21738" lon="5.61918">
        <ele>767</ele>
        <time>2022-01-22T07:30:33Z</time>
      </trkpt>
      <trkpt lat="44.21741" lon="5.61928">
        <ele>769</ele>
        <time>2022-01-22T07:30:33Z</time>
      </trkpt>
      <trkpt lat="44.21742" lon="5.61941">
        <ele>770</ele>
        <time>2022-01-22T07:30:33Z</time>
      </trkpt>
      <trkpt lat="44.21765" lon="5.61976">
        <ele>772</ele>
        <time>2022-01-22T07:30:33Z</time>
      </trkpt>
      <trkpt lat="44.21769" lon="5.61989">
        <ele>773</ele>
        <time>2022-01-22T07:30:33Z</time>
      </trkpt>
      <trkpt lat="44.21771" lon="5.61999">
        <ele>778</ele>
        <time>2022-01-22T07:30:33Z</time>
      </trkpt>
      <trkpt lat="44.21771" lon="5.61999">
        <ele>778</ele>
        <time>2022-01-22T07:30:33Z</time>
      </trkpt>
      <trkpt lat="44.21774" lon="5.62012">
        <ele>778</ele>
        <time>2022-01-22T07:30:33Z</time>
      </trkpt>
      <trkpt lat="44.21781" lon="5.62022">
        <ele>778</ele>
        <time>2022-01-22T07:30:33Z</time>
      </trkpt>
      <trkpt lat="44.2179" lon="5.62028">
        <ele>778</ele>
        <time>2022-01-22T07:30:33Z</time>
      </trkpt>
      <trkpt lat="44.21824" lon="5.62028">
        <ele>778</ele>
        <time>2022-01-22T07:30:33Z</time>
      </trkpt>
      <trkpt lat="44.21845" lon="5.62024">
        <ele>777</ele>
        <time>2022-01-22T07:30:33Z</time>
      </trkpt>
      <trkpt lat="44.21855" lon="5.62026">
        <ele>777</ele>
        <time>2022-01-22T07:30:33Z</time>
      </trkpt>
      <trkpt lat="44.21882" lon="5.6205">
        <ele>775</ele>
        <time>2022-01-22T07:30:33Z</time>
      </trkpt>
      <trkpt lat="44.21899" lon="5.62057">
        <ele>774</ele>
        <time>2022-01-22T07:30:33Z</time>
      </trkpt>
      <trkpt lat="44.21899" lon="5.62057">
        <ele>765</ele>
        <time>2022-01-22T07:30:33Z</time>
      </trkpt>
      <trkpt lat="44.21929" lon="5.6206">
        <ele>764</ele>
        <time>2022-01-22T07:30:33Z</time>
      </trkpt>
      <trkpt lat="44.21929" lon="5.6206">
        <ele>762</ele>
        <time>2022-01-22T07:30:33Z</time>
      </trkpt>
      <trkpt lat="44.21938" lon="5.62058">
        <ele>761</ele>
        <time>2022-01-22T07:30:33Z</time>
      </trkpt>
      <trkpt lat="44.21948" lon="5.62058">
        <ele>761</ele>
        <time>2022-01-22T07:30:33Z</time>
      </trkpt>
      <trkpt lat="44.22007" lon="5.62075">
        <ele>760</ele>
        <time>2022-01-22T07:30:33Z</time>
      </trkpt>
      <trkpt lat="44.22017" lon="5.6209">
        <ele>759</ele>
        <time>2022-01-22T07:30:33Z</time>
      </trkpt>
      <trkpt lat="44.22024" lon="5.62108">
        <ele>757</ele>
        <time>2022-01-22T07:30:33Z</time>
      </trkpt>
      <trkpt lat="44.22024" lon="5.62108">
        <ele>752</ele>
        <time>2022-01-22T07:30:33Z</time>
      </trkpt>
      <trkpt lat="44.22027" lon="5.6212">
        <ele>752</ele>
        <time>2022-01-22T07:30:33Z</time>
      </trkpt>
      <trkpt lat="44.22032" lon="5.62185">
        <ele>752</ele>
        <time>2022-01-22T07:30:33Z</time>
      </trkpt>
      <trkpt lat="44.2204" lon="5.62197">
        <ele>751</ele>
        <time>2022-01-22T07:30:33Z</time>
      </trkpt>
      <trkpt lat="44.22058" lon="5.62214">
        <ele>750</ele>
        <time>2022-01-22T07:30:33Z</time>
      </trkpt>
      <trkpt lat="44.22066" lon="5.62217">
        <ele>749</ele>
        <time>2022-01-22T07:30:33Z</time>
      </trkpt>
      <trkpt lat="44.22088" lon="5.62211">
        <ele>748</ele>
        <time>2022-01-22T07:30:33Z</time>
      </trkpt>
      <trkpt lat="44.22088" lon="5.62211">
        <ele>742</ele>
        <time>2022-01-22T07:30:33Z</time>
      </trkpt>
      <trkpt lat="44.22134" lon="5.62186">
        <ele>741</ele>
        <time>2022-01-22T07:30:33Z</time>
      </trkpt>
      <trkpt lat="44.22134" lon="5.62186">
        <ele>738</ele>
        <time>2022-01-22T07:30:33Z</time>
      </trkpt>
      <trkpt lat="44.22214" lon="5.62268">
        <ele>737</ele>
        <time>2022-01-22T07:30:33Z</time>
      </trkpt>
      <trkpt lat="44.22248" lon="5.62322">
        <ele>735</ele>
        <time>2022-01-22T07:30:33Z</time>
      </trkpt>
      <trkpt lat="44.22248" lon="5.62322">
        <ele>730</ele>
        <time>2022-01-22T07:30:33Z</time>
      </trkpt>
      <trkpt lat="44.22285" lon="5.62387">
        <ele>729</ele>
        <time>2022-01-22T07:30:33Z</time>
      </trkpt>
      <trkpt lat="44.22311" lon="5.62419">
        <ele>728</ele>
        <time>2022-01-22T07:30:33Z</time>
      </trkpt>
      <trkpt lat="44.22319" lon="5.62442">
        <ele>727</ele>
        <time>2022-01-22T07:30:33Z</time>
      </trkpt>
      <trkpt lat="44.22323" lon="5.62466">
        <ele>727</ele>
        <time>2022-01-22T07:30:33Z</time>
      </trkpt>
      <trkpt lat="44.22321" lon="5.62492">
        <ele>727</ele>
        <time>2022-01-22T07:30:33Z</time>
      </trkpt>
      <trkpt lat="44.22321" lon="5.62492">
        <ele>725</ele>
        <time>2022-01-22T07:30:33Z</time>
      </trkpt>
      <trkpt lat="44.22321" lon="5.62503">
        <ele>725</ele>
        <time>2022-01-22T07:30:33Z</time>
      </trkpt>
      <trkpt lat="44.22392" lon="5.62696">
        <ele>724</ele>
        <time>2022-01-22T07:30:33Z</time>
      </trkpt>
      <trkpt lat="44.22407" lon="5.62796">
        <ele>724</ele>
        <time>2022-01-22T07:30:33Z</time>
      </trkpt>
      <trkpt lat="44.22407" lon="5.62835">
        <ele>723</ele>
        <time>2022-01-22T07:30:33Z</time>
      </trkpt>
      <trkpt lat="44.22403" lon="5.6286">
        <ele>723</ele>
        <time>2022-01-22T07:30:33Z</time>
      </trkpt>
      <trkpt lat="44.22402" lon="5.62878">
        <ele>722</ele>
        <time>2022-01-22T07:30:33Z</time>
      </trkpt>
      <trkpt lat="44.22407" lon="5.62894">
        <ele>722</ele>
        <time>2022-01-22T07:30:33Z</time>
      </trkpt>
      <trkpt lat="44.22439" lon="5.62948">
        <ele>722</ele>
        <time>2022-01-22T07:30:33Z</time>
      </trkpt>
      <trkpt lat="44.22456" lon="5.62965">
        <ele>722</ele>
        <time>2022-01-22T07:30:33Z</time>
      </trkpt>
      <trkpt lat="44.22418" lon="5.63015">
        <ele>722</ele>
        <time>2022-01-22T07:30:33Z</time>
      </trkpt>
      <trkpt lat="44.22382" lon="5.63079">
        <ele>723</ele>
        <time>2022-01-22T07:30:33Z</time>
      </trkpt>
      <trkpt lat="44.2235" lon="5.63117">
        <ele>724</ele>
        <time>2022-01-22T07:30:33Z</time>
      </trkpt>
      <trkpt lat="44.22327" lon="5.6313">
        <ele>725</ele>
        <time>2022-01-22T07:30:33Z</time>
      </trkpt>
      <trkpt lat="44.22217" lon="5.63146">
        <ele>727</ele>
        <time>2022-01-22T07:30:33Z</time>
      </trkpt>
      <trkpt lat="44.22209" lon="5.63151">
        <ele>728</ele>
        <time>2022-01-22T07:30:33Z</time>
      </trkpt>
      <trkpt lat="44.22209" lon="5.63151">
        <ele>732</ele>
        <time>2022-01-22T07:30:33Z</time>
      </trkpt>
      <trkpt lat="44.22132" lon="5.63215">
        <ele>733</ele>
        <time>2022-01-22T07:30:33Z</time>
      </trkpt>
      <trkpt lat="44.22086" lon="5.63267">
        <ele>734</ele>
        <time>2022-01-22T07:30:33Z</time>
      </trkpt>
      <trkpt lat="44.22043" lon="5.63281">
        <ele>736</ele>
        <time>2022-01-22T07:30:33Z</time>
      </trkpt>
      <trkpt lat="44.22041" lon="5.63292">
        <ele>737</ele>
        <time>2022-01-22T07:30:33Z</time>
      </trkpt>
      <trkpt lat="44.22074" lon="5.63425">
        <ele>739</ele>
        <time>2022-01-22T07:30:33Z</time>
      </trkpt>
      <trkpt lat="44.2207" lon="5.63435">
        <ele>740</ele>
        <time>2022-01-22T07:30:33Z</time>
      </trkpt>
      <trkpt lat="44.22078" lon="5.63494">
        <ele>740</ele>
        <time>2022-01-22T07:30:33Z</time>
      </trkpt>
      <trkpt lat="44.22071" lon="5.6355">
        <ele>740</ele>
        <time>2022-01-22T07:30:33Z</time>
      </trkpt>
      <trkpt lat="44.22072" lon="5.63562">
        <ele>740</ele>
        <time>2022-01-22T07:30:33Z</time>
      </trkpt>
      <trkpt lat="44.22082" lon="5.63586">
        <ele>740</ele>
        <time>2022-01-22T07:30:33Z</time>
      </trkpt>
      <trkpt lat="44.22084" lon="5.63608">
        <ele>740</ele>
        <time>2022-01-22T07:30:33Z</time>
      </trkpt>
      <trkpt lat="44.22078" lon="5.63666">
        <ele>740</ele>
        <time>2022-01-22T07:30:33Z</time>
      </trkpt>
      <trkpt lat="44.22078" lon="5.63666">
        <ele>739</ele>
        <time>2022-01-22T07:30:33Z</time>
      </trkpt>
      <trkpt lat="44.22077" lon="5.63689">
        <ele>739</ele>
        <time>2022-01-22T07:30:33Z</time>
      </trkpt>
      <trkpt lat="44.2207" lon="5.63723">
        <ele>740</ele>
        <time>2022-01-22T07:30:33Z</time>
      </trkpt>
      <trkpt lat="44.2208" lon="5.63774">
        <ele>740</ele>
        <time>2022-01-22T07:30:33Z</time>
      </trkpt>
      <trkpt lat="44.22092" lon="5.63805">
        <ele>741</ele>
        <time>2022-01-22T07:30:33Z</time>
      </trkpt>
      <trkpt lat="44.22109" lon="5.63828">
        <ele>741</ele>
        <time>2022-01-22T07:30:33Z</time>
      </trkpt>
      <trkpt lat="44.22132" lon="5.63906">
        <ele>742</ele>
        <time>2022-01-22T07:30:33Z</time>
      </trkpt>
      <trkpt lat="44.22132" lon="5.63931">
        <ele>742</ele>
        <time>2022-01-22T07:30:33Z</time>
      </trkpt>
      <trkpt lat="44.22128" lon="5.63949">
        <ele>742</ele>
        <time>2022-01-22T07:30:33Z</time>
      </trkpt>
      <trkpt lat="44.22105" lon="5.64012">
        <ele>743</ele>
        <time>2022-01-22T07:30:33Z</time>
      </trkpt>
      <trkpt lat="44.22103" lon="5.64022">
        <ele>743</ele>
        <time>2022-01-22T07:30:33Z</time>
      </trkpt>
      <trkpt lat="44.22103" lon="5.64038">
        <ele>744</ele>
        <time>2022-01-22T07:30:33Z</time>
      </trkpt>
      <trkpt lat="44.22117" lon="5.64103">
        <ele>745</ele>
        <time>2022-01-22T07:30:33Z</time>
      </trkpt>
      <trkpt lat="44.2218" lon="5.64279">
        <ele>746</ele>
        <time>2022-01-22T07:30:33Z</time>
      </trkpt>
      <trkpt lat="44.2218" lon="5.64279">
        <ele>747</ele>
        <time>2022-01-22T07:30:33Z</time>
      </trkpt>
      <trkpt lat="44.22183" lon="5.64293">
        <ele>747</ele>
        <time>2022-01-22T07:30:33Z</time>
      </trkpt>
      <trkpt lat="44.2222" lon="5.64305">
        <ele>747</ele>
        <time>2022-01-22T07:30:33Z</time>
      </trkpt>
      <trkpt lat="44.22266" lon="5.64336">
        <ele>745</ele>
        <time>2022-01-22T07:30:33Z</time>
      </trkpt>
      <trkpt lat="44.22274" lon="5.64339">
        <ele>745</ele>
        <time>2022-01-22T07:30:33Z</time>
      </trkpt>
      <trkpt lat="44.22259" lon="5.64356">
        <ele>744</ele>
        <time>2022-01-22T07:30:33Z</time>
      </trkpt>
      <trkpt lat="44.22234" lon="5.64405">
        <ele>744</ele>
        <time>2022-01-22T07:30:33Z</time>
      </trkpt>
      <trkpt lat="44.22211" lon="5.6449">
        <ele>746</ele>
        <time>2022-01-22T07:30:33Z</time>
      </trkpt>
      <trkpt lat="44.22216" lon="5.64502">
        <ele>746</ele>
        <time>2022-01-22T07:30:33Z</time>
      </trkpt>
      <trkpt lat="44.22254" lon="5.6452">
        <ele>747</ele>
        <time>2022-01-22T07:30:33Z</time>
      </trkpt>
      <trkpt lat="44.2226" lon="5.64531">
        <ele>747</ele>
        <time>2022-01-22T07:30:33Z</time>
      </trkpt>
      <trkpt lat="44.22262" lon="5.64564">
        <ele>748</ele>
        <time>2022-01-22T07:30:33Z</time>
      </trkpt>
      <trkpt lat="44.22257" lon="5.64672">
        <ele>749</ele>
        <time>2022-01-22T07:30:33Z</time>
      </trkpt>
      <trkpt lat="44.22252" lon="5.6471">
        <ele>750</ele>
        <time>2022-01-22T07:30:33Z</time>
      </trkpt>
      <trkpt lat="44.22255" lon="5.64783">
        <ele>752</ele>
        <time>2022-01-22T07:30:33Z</time>
      </trkpt>
      <trkpt lat="44.22255" lon="5.64783">
        <ele>759</ele>
        <time>2022-01-22T07:30:33Z</time>
      </trkpt>
      <trkpt lat="44.22254" lon="5.64844">
        <ele>759</ele>
        <time>2022-01-22T07:30:33Z</time>
      </trkpt>
      <trkpt lat="44.22249" lon="5.64875">
        <ele>759</ele>
        <time>2022-01-22T07:30:33Z</time>
      </trkpt>
      <trkpt lat="44.2223" lon="5.64929">
        <ele>759</ele>
        <time>2022-01-22T07:30:33Z</time>
      </trkpt>
      <trkpt lat="44.22226" lon="5.64963">
        <ele>760</ele>
        <time>2022-01-22T07:30:33Z</time>
      </trkpt>
      <trkpt lat="44.22221" lon="5.64976">
        <ele>760</ele>
        <time>2022-01-22T07:30:33Z</time>
      </trkpt>
      <trkpt lat="44.22224" lon="5.64996">
        <ele>762</ele>
        <time>2022-01-22T07:30:33Z</time>
      </trkpt>
      <trkpt lat="44.22213" lon="5.6505">
        <ele>763</ele>
        <time>2022-01-22T07:30:33Z</time>
      </trkpt>
      <trkpt lat="44.22251" lon="5.65068">
        <ele>762</ele>
        <time>2022-01-22T07:30:33Z</time>
      </trkpt>
      <trkpt lat="44.22267" lon="5.65099">
        <ele>762</ele>
        <time>2022-01-22T07:30:33Z</time>
      </trkpt>
      <trkpt lat="44.22274" lon="5.65135">
        <ele>763</ele>
        <time>2022-01-22T07:30:33Z</time>
      </trkpt>
      <trkpt lat="44.22284" lon="5.65184">
        <ele>765</ele>
        <time>2022-01-22T07:30:33Z</time>
      </trkpt>
      <trkpt lat="44.22302" lon="5.65206">
        <ele>767</ele>
        <time>2022-01-22T07:30:33Z</time>
      </trkpt>
      <trkpt lat="44.22302" lon="5.65206">
        <ele>773</ele>
        <time>2022-01-22T07:30:33Z</time>
      </trkpt>
      <trkpt lat="44.22307" lon="5.65228">
        <ele>773</ele>
        <time>2022-01-22T07:30:33Z</time>
      </trkpt>
      <trkpt lat="44.2235" lon="5.65213">
        <ele>772</ele>
        <time>2022-01-22T07:30:33Z</time>
      </trkpt>
      <trkpt lat="44.2237" lon="5.65202">
        <ele>771</ele>
        <time>2022-01-22T07:30:33Z</time>
      </trkpt>
      <trkpt lat="44.22381" lon="5.65203">
        <ele>770</ele>
        <time>2022-01-22T07:30:33Z</time>
      </trkpt>
      <trkpt lat="44.22392" lon="5.65202">
        <ele>769</ele>
        <time>2022-01-22T07:30:33Z</time>
      </trkpt>
      <trkpt lat="44.22398" lon="5.65193">
        <ele>768</ele>
        <time>2022-01-22T07:30:33Z</time>
      </trkpt>
      <trkpt lat="44.22401" lon="5.65183">
        <ele>767</ele>
        <time>2022-01-22T07:30:33Z</time>
      </trkpt>
      <trkpt lat="44.2241" lon="5.6517">
        <ele>766</ele>
        <time>2022-01-22T07:30:33Z</time>
      </trkpt>
      <trkpt lat="44.22418" lon="5.65165">
        <ele>766</ele>
        <time>2022-01-22T07:30:33Z</time>
      </trkpt>
      <trkpt lat="44.22444" lon="5.65157">
        <ele>764</ele>
        <time>2022-01-22T07:30:33Z</time>
      </trkpt>
      <trkpt lat="44.22449" lon="5.65146">
        <ele>763</ele>
        <time>2022-01-22T07:30:33Z</time>
      </trkpt>
      <trkpt lat="44.22453" lon="5.65103">
        <ele>760</ele>
        <time>2022-01-22T07:30:33Z</time>
      </trkpt>
      <trkpt lat="44.22457" lon="5.65091">
        <ele>759</ele>
        <time>2022-01-22T07:30:33Z</time>
      </trkpt>
      <trkpt lat="44.22466" lon="5.65098">
        <ele>757</ele>
        <time>2022-01-22T07:30:33Z</time>
      </trkpt>
      <trkpt lat="44.2247" lon="5.65111">
        <ele>755</ele>
        <time>2022-01-22T07:30:33Z</time>
      </trkpt>
      <trkpt lat="44.22476" lon="5.65121">
        <ele>754</ele>
        <time>2022-01-22T07:30:33Z</time>
      </trkpt>
      <trkpt lat="44.22479" lon="5.65139">
        <ele>753</ele>
        <time>2022-01-22T07:30:33Z</time>
      </trkpt>
      <trkpt lat="44.22475" lon="5.65157">
        <ele>753</ele>
        <time>2022-01-22T07:30:33Z</time>
      </trkpt>
      <trkpt lat="44.22475" lon="5.65192">
        <ele>752</ele>
        <time>2022-01-22T07:30:33Z</time>
      </trkpt>
      <trkpt lat="44.22486" lon="5.65188">
        <ele>751</ele>
        <time>2022-01-22T07:30:33Z</time>
      </trkpt>
      <trkpt lat="44.22497" lon="5.65148">
        <ele>750</ele>
        <time>2022-01-22T07:30:33Z</time>
      </trkpt>
      <trkpt lat="44.22507" lon="5.65142">
        <ele>749</ele>
        <time>2022-01-22T07:30:33Z</time>
      </trkpt>
      <trkpt lat="44.22517" lon="5.65146">
        <ele>748</ele>
        <time>2022-01-22T07:30:33Z</time>
      </trkpt>
      <trkpt lat="44.22517" lon="5.65146">
        <ele>741</ele>
        <time>2022-01-22T07:30:33Z</time>
      </trkpt>
      <trkpt lat="44.22517" lon="5.65109">
        <ele>741</ele>
        <time>2022-01-22T07:30:33Z</time>
      </trkpt>
      <trkpt lat="44.22535" lon="5.65034">
        <ele>740</ele>
        <time>2022-01-22T07:30:33Z</time>
      </trkpt>
      <trkpt lat="44.2256" lon="5.64965">
        <ele>739</ele>
        <time>2022-01-22T07:30:33Z</time>
      </trkpt>
      <trkpt lat="44.22569" lon="5.64911">
        <ele>739</ele>
        <time>2022-01-22T07:30:33Z</time>
      </trkpt>
      <trkpt lat="44.22575" lon="5.64868">
        <ele>738</ele>
        <time>2022-01-22T07:30:33Z</time>
      </trkpt>
      <trkpt lat="44.22575" lon="5.64868">
        <ele>736</ele>
        <time>2022-01-22T07:30:33Z</time>
      </trkpt>
      <trkpt lat="44.22569" lon="5.64755">
        <ele>735</ele>
        <time>2022-01-22T07:30:33Z</time>
      </trkpt>
      <trkpt lat="44.22573" lon="5.6474">
        <ele>735</ele>
        <time>2022-01-22T07:30:33Z</time>
      </trkpt>
      <trkpt lat="44.22574" lon="5.6471">
        <ele>735</ele>
        <time>2022-01-22T07:30:33Z</time>
      </trkpt>
      <trkpt lat="44.22571" lon="5.64672">
        <ele>734</ele>
        <time>2022-01-22T07:30:33Z</time>
      </trkpt>
      <trkpt lat="44.22571" lon="5.64672">
        <ele>733</ele>
        <time>2022-01-22T07:30:33Z</time>
      </trkpt>
      <trkpt lat="44.22575" lon="5.64658">
        <ele>733</ele>
        <time>2022-01-22T07:30:33Z</time>
      </trkpt>
      <trkpt lat="44.22584" lon="5.64646">
        <ele>733</ele>
        <time>2022-01-22T07:30:33Z</time>
      </trkpt>
      <trkpt lat="44.22591" lon="5.64628">
        <ele>733</ele>
        <time>2022-01-22T07:30:33Z</time>
      </trkpt>
      <trkpt lat="44.22599" lon="5.64578">
        <ele>733</ele>
        <time>2022-01-22T07:30:33Z</time>
      </trkpt>
      <trkpt lat="44.22643" lon="5.6449">
        <ele>732</ele>
        <time>2022-01-22T07:30:33Z</time>
      </trkpt>
      <trkpt lat="44.22645" lon="5.64481">
        <ele>732</ele>
        <time>2022-01-22T07:30:33Z</time>
      </trkpt>
      <trkpt lat="44.22647" lon="5.64445">
        <ele>731</ele>
        <time>2022-01-22T07:30:33Z</time>
      </trkpt>
      <trkpt lat="44.22651" lon="5.64426">
        <ele>731</ele>
        <time>2022-01-22T07:30:33Z</time>
      </trkpt>
      <trkpt lat="44.22651" lon="5.64426">
        <ele>729</ele>
        <time>2022-01-22T07:30:33Z</time>
      </trkpt>
      <trkpt lat="44.22671" lon="5.64348">
        <ele>728</ele>
        <time>2022-01-22T07:30:33Z</time>
      </trkpt>
      <trkpt lat="44.22694" lon="5.64309">
        <ele>728</ele>
        <time>2022-01-22T07:30:33Z</time>
      </trkpt>
      <trkpt lat="44.22718" lon="5.64264">
        <ele>728</ele>
        <time>2022-01-22T07:30:33Z</time>
      </trkpt>
      <trkpt lat="44.22749" lon="5.64214">
        <ele>728</ele>
        <time>2022-01-22T07:30:33Z</time>
      </trkpt>
      <trkpt lat="44.22749" lon="5.64214">
        <ele>726</ele>
        <time>2022-01-22T07:30:33Z</time>
      </trkpt>
      <trkpt lat="44.22765" lon="5.64159">
        <ele>726</ele>
        <time>2022-01-22T07:30:33Z</time>
      </trkpt>
      <trkpt lat="44.22763" lon="5.64145">
        <ele>726</ele>
        <time>2022-01-22T07:30:33Z</time>
      </trkpt>
      <trkpt lat="44.22742" lon="5.64083">
        <ele>727</ele>
        <time>2022-01-22T07:30:33Z</time>
      </trkpt>
      <trkpt lat="44.22829" lon="5.63975">
        <ele>727</ele>
        <time>2022-01-22T07:30:33Z</time>
      </trkpt>
      <trkpt lat="44.22829" lon="5.63975">
        <ele>726</ele>
        <time>2022-01-22T07:30:33Z</time>
      </trkpt>
      <trkpt lat="44.22984" lon="5.63808">
        <ele>725</ele>
        <time>2022-01-22T07:30:33Z</time>
      </trkpt>
      <trkpt lat="44.23032" lon="5.63776">
        <ele>724</ele>
        <time>2022-01-22T07:30:33Z</time>
      </trkpt>
      <trkpt lat="44.23032" lon="5.63776">
        <ele>721</ele>
        <time>2022-01-22T07:30:33Z</time>
      </trkpt>
      <trkpt lat="44.23064" lon="5.63749">
        <ele>721</ele>
        <time>2022-01-22T07:30:33Z</time>
      </trkpt>
      <trkpt lat="44.23106" lon="5.6374">
        <ele>721</ele>
        <time>2022-01-22T07:30:33Z</time>
      </trkpt>
      <trkpt lat="44.23115" lon="5.63734">
        <ele>721</ele>
        <time>2022-01-22T07:30:33Z</time>
      </trkpt>
      <trkpt lat="44.2312" lon="5.63754">
        <ele>720</ele>
        <time>2022-01-22T07:30:33Z</time>
      </trkpt>
      <trkpt lat="44.23127" lon="5.63764">
        <ele>720</ele>
        <time>2022-01-22T07:30:33Z</time>
      </trkpt>
      <trkpt lat="44.23148" lon="5.63769">
        <ele>720</ele>
        <time>2022-01-22T07:30:33Z</time>
      </trkpt>
      <trkpt lat="44.23166" lon="5.63784">
        <ele>720</ele>
        <time>2022-01-22T07:30:33Z</time>
      </trkpt>
    </trkseg>
  </trk>
</gpx>